When you browse on this site, cookies collect data to enhance your experience and personalize the content and advertising you see.
Visit our Privacy Policy to learn more. By continuing to use the site, you agree to this use of cookies and data.
  • în România
  • Lista ţărilor
  • Pe 7 zile
  • Temperatura apei
  • Hartă satelitară
  • Meteo pe hartă
  • Widget-uri
  • user-avatar
    Intrare

    Meteo pe oră la Ordino

    Astăzi, 24 Martie, Duminică

    Timp Temperatura Precipitaţii Vânt Presiune Umiditate
    00:00 +4°C° 0 mm 1 m/s 635 mmHg 69%
    01:00 +4°C° 0 mm 1 m/s 635 mmHg 68%
    02:00 +4°C° 0 mm 1 m/s 635 mmHg 67%
    03:00 +4°C° 0 mm 1 m/s 635 mmHg 66%
    04:00 +4°C° 0 mm 1 m/s 635 mmHg 65%
    05:00 +4°C° 0 mm 1 m/s 635 mmHg 64%
    06:00 +4°C° 0 mm 1 m/s 635 mmHg 62%
    07:00 +7°C° 0 mm 1 m/s 636 mmHg 54%
    08:00 +9°C° 0 mm 1 m/s 637 mmHg 46%
    09:00 +12°C° 0 mm 1 m/s 638 mmHg 38%
    10:00 +13°C° 0 mm 1 m/s 638 mmHg 37%
    11:00 +14°C° 0 mm 1 m/s 638 mmHg 35%
    12:00 +15°C° 0 mm 1 m/s 639 mmHg 33%
    13:00 +14°C° 0.1 mm 1 m/s 638 mmHg 37%
    14:00 +14°C° 0.1 mm 1 m/s 638 mmHg 40%
    15:00 +13°C° 0.1 mm 2 m/s 637 mmHg 44%
    16:00 +12°C° 0.6 mm 1 m/s 636 mmHg 55%
    17:00 +10°C° 0.6 mm 1 m/s 636 mmHg 66%
    18:00 +8°C° 0.6 mm 1 m/s 635 mmHg 78%
    19:00 +7°C° 0.1 mm 1 m/s 635 mmHg 82%
    20:00 +6°C° 0.1 mm 1 m/s 635 mmHg 86%
    21:00 +5°C° 0.1 mm 1 m/s 635 mmHg 91%
    22:00 +5°C° 0 mm 1 m/s 635 mmHg 91%
    23:00 +4°C° 0 mm 1 m/s 634 mmHg 92%

    Mâine, 25 Martie, Luni

    Timp Temperatura Precipitaţii Vânt Presiune Umiditate
    00:00 +4°C° 0 mm 1 m/s 634 mmHg 93%
    01:00 +3°C° 0 mm 1 m/s 634 mmHg 90%
    02:00 +3°C° 0 mm 1 m/s 634 mmHg 86%
    03:00 +3°C° 0 mm 1 m/s 633 mmHg 83%
    04:00 +2°C° 0 mm 1 m/s 633 mmHg 80%
    05:00 +2°C° 0 mm 1 m/s 633 mmHg 78%
    06:00 +1°C° 0 mm 2 m/s 633 mmHg 75%
    07:00 +3°C° 0 mm 2 m/s 634 mmHg 69%
    08:00 +5°C° 0 mm 2 m/s 635 mmHg 63%
    09:00 +7°C° 0 mm 2 m/s 636 mmHg 57%
    10:00 +8°C° 0 mm 2 m/s 636 mmHg 54%
    11:00 +9°C° 0 mm 2 m/s 636 mmHg 51%
    12:00 +10°C° 0 mm 3 m/s 636 mmHg 47%
    13:00 +10°C° 0 mm 3 m/s 635 mmHg 48%
    14:00 +9°C° 0 mm 3 m/s 635 mmHg 49%
    15:00 +9°C° 0 mm 3 m/s 634 mmHg 50%
    16:00 +7°C° 0 mm 3 m/s 634 mmHg 58%
    17:00 +4°C° 0 mm 3 m/s 633 mmHg 66%
    18:00 +2°C° 0 mm 3 m/s 632 mmHg 74%
    19:00 +1°C° 0 mm 3 m/s 633 mmHg 77%
    20:00 0°C° 0 mm 3 m/s 633 mmHg 80%
    21:00 -1°C° 0 mm 3 m/s 633 mmHg 84%
    22:00 -1°C° 0 mm 3 m/s 633 mmHg 84%
    23:00 -1°C° 0 mm 3 m/s 634 mmHg 85%

    Poimâine, 26 Martie, Marţi

    Timp Temperatura Precipitaţii Vânt Presiune Umiditate
    00:00 -2°C° 0 mm 4 m/s 634 mmHg 86%
    01:00 -1°C° 0 mm 3 m/s 634 mmHg 85%
    02:00 -2°C° 0 mm 3 m/s 633 mmHg 84%
    03:00 -2°C° 0 mm 3 m/s 633 mmHg 83%
    04:00 -4°C° 0 mm 3 m/s 633 mmHg 77%
    05:00 -4°C° 0 mm 3 m/s 633 mmHg 71%
    06:00 -5°C° 0 mm 3 m/s 633 mmHg 65%
    07:00 -2°C° 0 mm 3 m/s 634 mmHg 52%
    08:00 -1°C° 0 mm 4 m/s 635 mmHg 38%
    09:00 +1°C° 0 mm 4 m/s 636 mmHg 25%
    10:00 +4°C° 0 mm 4 m/s 636 mmHg 22%
    11:00 +5°C° 0 mm 4 m/s 636 mmHg 20%
    12:00 +7°C° 0 mm 4 m/s 637 mmHg 18%
    13:00 +7°C° 0 mm 4 m/s 636 mmHg 20%
    14:00 +7°C° 0 mm 3 m/s 636 mmHg 23%
    15:00 +7°C° 0 mm 3 m/s 636 mmHg 26%
    16:00 +4°C° 0 mm 3 m/s 635 mmHg 35%
    17:00 +2°C° 0 mm 3 m/s 635 mmHg 43%
    18:00 +1°C° 0 mm 2 m/s 634 mmHg 52%
    19:00 +1°C° 0 mm 2 m/s 634 mmHg 54%
    20:00 -1°C° 0 mm 2 m/s 635 mmHg 56%
    21:00 -2°C° 0 mm 2 m/s 635 mmHg 58%
    22:00 -2°C° 0 mm 2 m/s 635 mmHg 58%
    23:00 0°C° 0 mm 1 m/s 635 mmHg 57%

    27 Martie, Miercuri

    Timp Temperatura Precipitaţii Vânt Presiune Umiditate
    00:00 0°C° 0 mm 1 m/s 635 mmHg 56%
    01:00 0°C° 0 mm 1 m/s 635 mmHg 57%
    02:00 0°C° 0 mm 1 m/s 635 mmHg 58%
    03:00 0°C° 0 mm 1 m/s 635 mmHg 59%
    04:00 0°C° 0 mm 1 m/s 635 mmHg 56%
    05:00 -1°C° 0 mm 1 m/s 635 mmHg 53%
    06:00 -1°C° 0 mm 1 m/s 635 mmHg 50%
    07:00 +2°C° 0 mm 1 m/s 636 mmHg 41%
    08:00 +5°C° 0 mm 1 m/s 637 mmHg 32%
    09:00 +8°C° 0 mm 1 m/s 639 mmHg 23%
    10:00 +9°C° 0 mm 1 m/s 639 mmHg 23%
    11:00 +10°C° 0 mm 1 m/s 639 mmHg 23%
    12:00 +12°C° 0 mm 2 m/s 639 mmHg 23%
    13:00 +10°C° 0 mm 2 m/s 639 mmHg 26%
    14:00 +10°C° 0 mm 2 m/s 639 mmHg 30%
    15:00 +10°C° 0 mm 2 m/s 638 mmHg 33%
    16:00 +7°C° 0 mm 2 m/s 637 mmHg 43%
    17:00 +5°C° 0 mm 2 m/s 637 mmHg 53%
    18:00 +4°C° 0 mm 1 m/s 636 mmHg 63%
    19:00 +3°C° 0 mm 1 m/s 636 mmHg 66%
    20:00 +2°C° 0 mm 1 m/s 636 mmHg 69%
    21:00 +1°C° 0 mm 1 m/s 636 mmHg 72%
    22:00 +1°C° 0 mm 1 m/s 636 mmHg 67%
    23:00 +1°C° 0 mm 1 m/s 636 mmHg 62%

    28 Martie, Joi

    Timp Temperatura Precipitaţii Vânt Presiune Umiditate
    00:00 +1°C° 0 mm 1 m/s 636 mmHg 58%
    01:00 +1°C° 0 mm 1 m/s 636 mmHg 61%
    02:00 +1°C° 0 mm 1 m/s 636 mmHg 64%
    03:00 +1°C° 0 mm 1 m/s 636 mmHg 67%
    04:00 +1°C° 0 mm 1 m/s 636 mmHg 67%
    05:00 +1°C° 0 mm 1 m/s 636 mmHg 67%
    06:00 +1°C° 0 mm 1 m/s 636 mmHg 66%
    07:00 +4°C° 0 mm 1 m/s 637 mmHg 57%
    08:00 +6°C° 0 mm 1 m/s 638 mmHg 48%
    09:00 +9°C° 0 mm 1 m/s 639 mmHg 39%
    10:00 +9°C° 0 mm 2 m/s 639 mmHg 37%
    11:00 +10°C° 0 mm 2 m/s 639 mmHg 36%
    12:00 +12°C° 0 mm 2 m/s 640 mmHg 35%
    13:00 +12°C° 0 mm 2 m/s 639 mmHg 38%
    14:00 +10°C° 0 mm 2 m/s 639 mmHg 41%
    15:00 +10°C° 0 mm 2 m/s 638 mmHg 43%
    16:00 +9°C° 0 mm 1 m/s 637 mmHg 52%
    17:00 +7°C° 0 mm 1 m/s 637 mmHg 61%
    18:00 +6°C° 0 mm 1 m/s 636 mmHg 70%
    19:00 +5°C° 0 mm 1 m/s 636 mmHg 75%
    20:00 +3°C° 0 mm 0 m/s 637 mmHg 80%
    21:00 +2°C° 0 mm 0 m/s 637 mmHg 85%
    22:00 +2°C° 0 mm 0 m/s 637 mmHg 87%
    23:00 +1°C° 0 mm 0 m/s 636 mmHg 89%

    29 Martie, Vineri

    Timp Temperatura Precipitaţii Vânt Presiune Umiditate
    00:00 +1°C° 0 mm 0 m/s 636 mmHg 91%
    01:00 +1°C° 0 mm 0 m/s 636 mmHg 91%
    02:00 0°C° 0 mm 0 m/s 636 mmHg 91%
    03:00 0°C° 0 mm 0 m/s 636 mmHg 91%
    04:00 0°C° 0 mm 0 m/s 636 mmHg 91%
    05:00 0°C° 0 mm 0 m/s 636 mmHg 90%
    06:00 0°C° 0 mm 0 m/s 636 mmHg 90%
    07:00 +3°C° 0 mm 1 m/s 637 mmHg 79%
    08:00 +6°C° 0 mm 1 m/s 638 mmHg 67%
    09:00 +8°C° 0 mm 1 m/s 639 mmHg 56%
    10:00 +8°C° 0.1 mm 1 m/s 639 mmHg 57%
    11:00 +8°C° 0.1 mm 1 m/s 638 mmHg 58%
    12:00 +8°C° 0.1 mm 1 m/s 638 mmHg 59%
    13:00 +8°C° 0.1 mm 1 m/s 638 mmHg 60%
    14:00 +8°C° 0.1 mm 1 m/s 637 mmHg 62%
    15:00 +7°C° 0.1 mm 1 m/s 637 mmHg 64%
    16:00 +7°C° 0.1 mm 1 m/s 636 mmHg 68%
    17:00 +6°C° 0.1 mm 1 m/s 636 mmHg 71%
    18:00 +4°C° 0.1 mm 0 m/s 636 mmHg 75%
    19:00 +5°C° 0 mm 1 m/s 636 mmHg 79%
    20:00 +4°C° 0 mm 1 m/s 636 mmHg 83%
    21:00 +3°C° 0 mm 1 m/s 636 mmHg 86%
    22:00 +3°C° 0 mm 1 m/s 636 mmHg 88%
    23:00 +2°C° 0 mm 1 m/s 635 mmHg 90%
    Arată mai mult